STARLINK-31928, 59897

Orbit data source: Space-Track

STARLINK-31928, 59897 is a payload satellite owned by SpaceX/Seattle (US) in LEO that was launched on Tue, 28 May 2024 UTC via an FALCON 9 launch vehicle from the Air Force Eastern Test Range (AFETR). Payload-class satellites include a variety of spacecraft equipped with specific instruments for various scientific and technological missions. These include communications satellites like Starlink; space stations such as the ISS; scientific satellites like the Hubble; Earth observation satellites from companies like Planet Labs, Umbra, and HawkEye 360; GPS; miniature CubeSats for education and research; and military/defense satellites.

Loading next visibility...
Identifier
59897, 2024-100N
Orbit
LEO
Country
Flag of USUS
Related business
Manufacturer
SpaceX/Seattle
Mission
Operational spacecraft
Bus & Motor
STARLINK V2M, Unknown motor
Mass
730 kg wet, ~700 kg dry
Launch date (UTC)
2024-05-28 (2 years ago)
Launch vehicle
FALCON 9
Launch site
Air Force Eastern Test Range (AFETR)
Object type
Payload
Rocket body
Debris
Shape & HBR
Unknown shape, 17.7 m
Radar Cross Section
Large (>1 m²)

Expand to show TLE details & history
Last TLE update: 15 hours ago

TLE from 15 hours ago
0 STARLINK-31928
1 59897U 24100N   26036.06237830  .00000778  00000-0  37803-4 0  9998
2 59897  43.0016 309.9476 0000645 287.1473  72.9308 15.27573380 96060
Epoch: 2026-02-05T01:29Z
TLE epoch observation values (Epoch: 2026-02-05T01:29:49.485Z)
Latitude
-0°
Longitude
152.27141°
Altitude
482.715 km
Speed
7.626 km/s
True Right ascension
20h 39m 47s
True Declination
0° 00' 00"
Sunlit
Object was in daylight at epoch
Visualization orbit readout
Latitude
Unknown
Longitude
Unknown
Altitude
Unknown
Speed
Unknown
Apparent Right ascension
Unknown
Apparent Declination
Unknown
Sunlit
N/A
Visualization observer readout
Local Sidereal Time
18:43:52
Azimuth
Unknown
Elevation
Unknown
Doppler factor
Unknown
Orbital elements
Apogee altitude
485.456 km
Perigee altitude
484.571 km
Semi-major axis
6,863.151 km
Eccentricity
0.00006
Inclination
43.0016°
RAAN
309.9476°
Arg. of periapsis
287.1473°
True anomaly
72.93787°
Mean anomaly
72.9308°
Eccentric anomaly
72.93433°
Mean motion
3.81731 °/min
Orbital period
94.31 mins
BSTAR
0.000037803
Loading maneuver chart data...
Computing Atmospheric mass density...
Loading historical data...
Loading historical data...
Loading historical data...
Loading historical data...
Loading historical data...
Loading historical data...
Loading historical data...

Documentation

Showing up to 5 results
|